SCP
0 0 0 0 0 0 0 0 0 0 0 0 0 0 0 0 0 0 0 0 0 0 0 -0 0 0 0 0 0 0 0 0 0 0 0 0 0 0 0 0 0 0 0 0
0 0 0 0 0 0 0 0 0 0 0 0 0 0 0 0 0 0 0 0 0 0 0 -0 0 0 0 0 0 0 0 0 0 0 0 0 0 0 0 0 0 0 0 0
0 0 0 0 0 0 0 0 0 0 0 0 0 0 0 0 0 0 0 0 0 0 0 0 0 0 0 0 0 0 0 0 0 0 0 0 0 0 0 0 0 0 0 0
0 0 0 0 0 0 0 0 0 0 0 0 0 0 0 0 0 0 0 0 0 0 0 0 0 0 0 0 0 0 0 0 0 0 0 0 0 0 0 0 0 0 0 0
0 0 0 0 0 0 0 0 0 0 0 0 0 0 0 0 0 0 0 0 0 0 0 0 0 0 0 0 0 0 0 0 0 0 0 0 0 0 0 0 0 0 0 0
0 0 0 0 0 0 0 0 0 0 0 0 0 0 0 0 0 0 0 0 0 0 0 0 0 0 0 0 0 0 0 0 0 0 0 0 0 0 0 0 0 0 0 0
0 0 0 0 0 0 0 0 0 0 0 0 0 0 0 0 0 0 0 0 0 0 0 0 0 0 0 0 0 0 0 0 0 0 0 0 0 0 0 0 0 0 0 0
0 0 0 0 0 0 0 0 0 0 0 0 0 0 0 0 0 0 0 0 0 0 0 0 0 0 0 0 0 0 0 0 0 0 0 0 0 0 0 0 0 0 0 0
0 0 0 0 0 0 0 0 0 0 0 0 0 0 0 0 0 0 0 0 0 0 0 0 0 0 0 0 0 0 0 0 0 0 0 0 0 0 0 0 0 0 0 0
0 0 0 0 0 0 0 0 0 0 0 0 0 0 0 0 0 0 0 0 0 0 0 0 0 0 0 0 0 0 0 0 0 0 0 0 0 0 0 0 0 0 0 0
0 0 0 0 0 0 0 0 0 0 0 0 0 0 0 0 0 0 0 0 0 0 0 0 0 0 0 0 0 0 0 0 0 0 0 0 0 0 0 0 0 0 0 0
0 0 0 0 0 0 0 0 0 0 0 0 0 0 0 0 0 0 0 0 0 0 0 0 0 0 0 0 0 0 0 0 0 0 0 0 0 0 0 0 0 0 0 0
0 0 0 0 0 0 0 0 0 0 0 0 0 0 0 0 0 0 0 0 0 0 0 0 0 0 0 0 0 0 0 0 0 0 0 0 0 0 0 0 0 0 0 0
0 0 0 0 0 0 0 0 0 0 0 0 0 0 0 0 0 0 0 0 0 0 0 0 0 0 0 0 0 0 0 0 0 0 0 0 0 0 0 0 0 0 0 0
0 0 0 0 0 0 0 0 0 0 0 0 0 0 0 0 0 0 0 0 0 0 0 0 0 0 0 0 0 0 0 0 0 0 0 0 0 0 0 0 0 0 0 0
0 0 0 0 0 0 0 0 0 0 0 0 0 0 0 0 0 0 0 0 0 0 0 0 0 0 0 0 0 0 0 0 0 0 0 0 0 0 0 0 0 0 0 0
0 0 0 0 0 0 0 0 0 0 0 0 0 0 0 0 0 0 0 0 0 0 0 0 0 0 0 0 0 0 0 0 0 0 0 0 0 0 0 0 0 0 0 0
0 0 0 0 0 0 0 0 0 0 0 0 0 0 0 0 0 0 0 0 0 0 0 0 0 0 0 0 0 0 0 0 0 0 0 0 0 0 0 0 0 0 0 0
0 0 0 0 0 0 0 0 0 0 0 0 0 0 0 0 0 0 0 0 0 0 0 0 0 0 0 0 0 0 0 0 0 0 0 0 0 0 0 0 0 0 0 0
0 0 0 0 0 0 0 0 0 0 0 0 0 0 0 0 0 0 0 0 0 0 0 0 0 0 0 0 0 0 0 0 0 0 0 0 0 0 0 0 0 0 0 0
0 0 0 0 0 0 0 0 0 0 0 0 0 0 0 0 0 0 0 0 0 0 0 0 0 0 0 0 0 0 0 0 0 0 0 0 0 0 0 0 0 0 0 0
0 0 0 0 0 0 0 0 0 0 0 0 0 0 0 0 0 0 0 0 0 0 0 0 0 0 0 0 0 0 0 0 0 0 0 0 0 0 0 0 0 0 0 0
0 0 0 0 0 0 0 0 0 0 0 0 0 0 0 0 0 0 0 0 0 0 0 0 0 0 0 0 0 0 0 0 0 0 0 0 0 0 0 0 0 0 0 0
0 0 0 0 0 0 0 0 0 0 0 0 0 0 0 0 0 0 0 0 0 0 0 0 0 0 0 0 0 0 0 0 0 0 0 0 0 0 0 0 0 0 0 0
0 0 0 0 0 0 0 0 0 0 0 0 0 0 0 0 0 0 0 0 0 0 0 0 0 0 0 0 0 0 0 0 0 0 0 0 0 0 0 0 0 0 0 0
0 0 0 0 0 0 0 0 0 0 0 0 0 0 0 0 0 0 0 0 0 0 0 0 0 0 0 0 0 0 0 0 0 0 0 0 0 0 0 0 0 0 0 0
Wind_Speed
4 6 6 9 9 5 5 4 5 5 4 6 7 9 7 5 6 7 7 7 7 7 4 4 4 4 3 2 1 1 0 1 1 1 1 2 2 2 3 3 4 4 4 4
5 4 7 6 5 3 4 4 5 4 2 5 4 7 6 6 8 9 10 9 9 6 4 5 4 4 3 3 2 2 2 1 1 0 0 0 1 2 2 2 3 4 4 4
6 5 6 7 6 5 5 6 5 3 2 1 1 7 5 3 4 5 6 6 7 9 9 7 6 5 4 4 4 3 3 2 1 0 1 1 2 2 3 3 3 4 4 3
3 2 5 5 5 7 5 6 4 2 2 2 0 4 7 3 3 5 7 7 8 8 7 7 7 6 6 6 4 4 3 3 2 0 1 1 1 1 2 2 3 4 4 4
2 3 4 5 6 7 4 2 3 2 3 1 1 2 9 2 4 8 8 8 8 8 9 9 8 8 6 5 4 4 3 3 2 1 1 1 0 1 2 2 3 4 4 4
1 1 3 4 1 4 5 6 6 5 4 2 3 4 8 5 7 6 6 8 8 8 8 7 6 5 5 4 4 4 4 4 3 2 1 2 2 2 2 2 3 3 3 3
2 1 1 2 4 3 4 6 4 4 4 5 2 3 10 6 7 7 7 9 9 8 8 7 7 7 6 6 6 5 5 5 4 3 3 3 3 2 2 2 2 2 2 2
2 2 3 3 4 5 4 7 6 4 4 5 2 6 9 6 5 4 5 6 7 8 8 9 9 8 7 7 6 5 5 5 4 4 3 3 3 2 2 2 2 2 2 3
5 3 1 1 3 8 6 3 5 6 2 2 6 7 9 2 1 1 3 5 8 9 9 9 8 8 7 7 7 7 6 6 5 4 4 3 3 3 3 2 2 2 2 2
5 2 1 0 5 5 4 8 6 5 3 3 7 6 6 6 6 4 5 7 8 7 8 8 8 8 7 7 6 5 6 6 5 4 4 3 3 3 3 2 2 2 2 2
3 3 1 1 3 5 4 4 5 5 5 5 3 9 7 7 8 8 9 8 8 9 9 9 8 7 7 6 5 5 5 5 4 4 3 3 3 2 2 2 2 2 2 2
3 5 1 4 2 2 5 7 8 5 4 5 3 11 7 6 7 7 8 7 7 8 8 8 7 6 6 6 6 6 5 5 5 4 3 3 3 2 2 2 2 2 2 2
6 6 2 6 5 1 2 4 5 6 6 5 5 10 5 3 4 6 7 7 6 7 7 6 6 7 7 7 6 6 6 6 5 3 3 3 3 3 3 3 2 2 2 2
6 5 6 7 8 4 3 4 5 7 5 6 9 11 9 6 6 7 7 7 6 6 7 7 7 7 7 7 7 6 6 5 5 4 4 4 4 4 4 3 3 2 2 2
5 3 5 6 5 3 5 6 7 9 9 10 11 10 14 10 10 9 7 6 6 6 7 8 9 8 7 7 6 6 6 5 5 5 5 6 5 4 3 3 3 3 2 3
3 4 2 4 4 4 5 8 8 10 7 9 8 12 13 8 5 5 7 8 9 9 9 9 9 8 8 8 8 7 7 6 5 5 6 5 4 4 4 4 4 3 3 3
3 6 4 5 4 3 7 11 11 8 9 10 13 16 8 5 9 11 11 10 11 11 10 10 10 10 10 9 8 8 7 5 5 6 6 5 5 5 5 4 4 4 4 3
7 6 4 2 1 6 11 5 6 8 10 11 11 10 9 12 10 7 8 11 11 10 9 9 9 9 8 7 7 6 4 5 5 5 5 5 5 5 5 4 5 5 4 4
6 8 5 4 3 8 11 7 6 6 10 10 13 13 7 4 1 4 7 9 10 10 9 9 9 8 7 7 7 6 5 4 4 5 5 5 5 5 5 5 6 4 3 4
4 5 6 4 4 6 11 6 2 3 7 8 9 11 6 9 4 8 7 9 8 7 6 6 6 6 6 6 7 7 6 5 5 5 5 4 4 5 5 6 5 3 3 4
2 3 4 5 5 10 11 4 4 3 9 6 4 7 10 11 10 6 7 8 7 7 6 6 7 6 6 7 8 7 6 5 5 3 2 2 2 3 4 3 3 3 3 3
7 6 6 6 5 11 4 3 5 8 6 5 4 5 10 10 3 4 8 8 8 7 7 7 7 6 5 7 8 7 6 4 3 3 2 1 0 0 0 1 2 2 2 3
7 8 7 10 10 6 2 5 6 5 6 6 5 5 7 7 7 6 7 8 8 8 8 7 8 7 5 5 7 8 5 4 4 4 3 2 2 2 1 1 1 1 1 1
4 2 2 5 9 7 7 6 5 4 6 8 7 6 6 8 8 8 8 8 8 8 8 7 9 8 6 5 5 6 5 5 6 5 3 2 2 2 3 2 2 1 1 1
4 1 2 6 9 9 7 5 6 7 7 8 7 5 7 8 8 9 9 10 9 8 7 8 9 9 8 6 6 5 6 7 7 5 4 3 3 3 3 3 2 2 2 1
5 6 5 8 8 6 12 11 9 10 11 9 8 8 6 8 10 10 10 10 10 10 9 9 9 9 8 8 7 6 6 7 8 6 4 3 2 2 2 3 3 6 6 10
Wind_Direction
107 106 162 189 189 176 172 195 240 250 195 177 217 248 261 201 198 205 203 201 207 210 204 183 170 156 149 158 170 196 260 318 0 15 11 6 351 339 348 356 1 3 2 4
83 185 199 176 164 149 176 208 246 275 174 184 240 265 265 209 205 204 201 203 202 194 184 184 174 169 180 190 202 223 241 269 293 288 271 261 297 309 306 323 352 5 3 1
151 203 160 144 156 172 202 205 221 223 82 63 335 306 289 257 215 202 199 198 194 191 191 189 184 191 196 208 212 216 229 245 262 333 44 27 19 1 356 351 347 344 350 1
145 179 149 148 175 166 227 228 199 155 112 284 90 284 290 283 246 218 208 196 196 195 187 187 188 196 207 216 215 221 228 241 250 179 96 89 74 336 301 306 315 328 346 359
166 166 154 177 200 175 199 71 103 94 125 359 331 204 284 298 248 239 221 208 201 194 188 191 195 200 208 210 210 220 230 246 246 216 182 151 200 254 291 312 332 342 345 356
137 191 189 191 141 145 123 72 57 51 67 312 239 180 277 238 224 236 216 206 198 191 189 195 197 198 213 216 217 219 226 247 247 236 225 215 234 261 308 326 336 337 335 339
39 351 267 146 101 74 93 88 32 355 4 257 265 210 251 257 241 228 214 204 193 184 182 188 193 202 211 216 219 218 222 243 249 242 242 237 240 242 252 272 292 314 326 326
133 266 236 192 166 157 153 137 156 206 235 283 300 239 256 262 270 237 209 187 179 183 186 194 199 202 209 216 219 217 222 238 245 240 244 242 241 232 245 253 257 275 276 286
166 234 292 179 141 130 132 156 155 130 174 284 285 285 299 249 254 161 160 166 189 194 194 199 201 203 209 216 219 215 220 234 241 236 239 244 241 236 247 260 265 270 277 288
152 178 293 99 84 43 132 139 105 115 153 272 296 283 260 253 235 215 200 201 209 203 200 202 202 206 211 218 221 218 220 229 237 234 234 234 234 239 242 251 275 283 292 310
135 144 319 41 186 178 117 104 105 109 147 159 275 276 235 234 223 213 216 213 207 201 202 202 204 206 210 217 218 220 225 228 237 236 232 239 247 244 239 248 267 278 295 315
139 119 209 265 267 194 177 168 148 152 206 174 189 269 269 255 242 220 222 221 213 207 204 201 200 198 203 214 218 220 223 226 233 229 223 231 239 233 241 256 265 266 290 304
140 114 61 344 338 305 199 169 156 130 123 157 180 262 290 300 250 227 226 227 219 210 204 196 193 197 206 212 216 219 221 226 229 215 215 226 232 231 240 250 257 259 271 289
116 124 166 206 228 219 220 185 159 139 160 201 220 247 284 277 253 239 227 223 213 208 200 194 198 204 208 211 214 217 225 223 218 207 211 226 232 231 237 245 249 248 251 263
114 176 220 237 237 212 228 223 187 195 199 201 230 230 248 243 231 230 219 209 202 204 201 200 202 205 206 211 216 217 224 220 206 203 217 231 234 231 234 240 244 246 250 254
121 178 196 275 263 233 252 250 220 218 219 224 244 257 246 244 232 225 215 202 206 210 207 205 203 201 204 208 211 212 219 215 197 208 224 230 227 227 231 237 241 245 254 259
157 149 150 256 292 351 272 236 217 210 207 194 220 241 237 210 216 218 211 201 206 209 206 202 201 201 204 205 202 207 213 200 196 215 227 226 222 228 233 233 235 243 248 250
156 150 157 212 356 249 248 244 217 225 240 216 227 242 217 214 222 222 202 196 205 206 203 204 202 201 204 200 198 201 190 188 202 218 229 227 221 230 232 227 236 241 238 241
158 144 138 152 217 274 290 273 201 207 266 232 225 240 230 199 127 271 216 198 202 200 197 199 195 191 188 188 184 171 177 185 200 221 231 229 219 225 229 233 239 236 232 244
77 115 129 146 184 242 254 257 183 145 279 264 217 228 184 137 170 244 209 188 198 195 187 181 169 163 171 180 160 158 173 179 206 222 230 228 212 215 229 237 242 233 228 245
104 112 159 176 212 257 257 270 133 184 251 286 224 205 171 187 205 212 161 174 177 175 171 156 150 158 172 160 149 156 165 191 213 213 209 207 207 219 234 245 240 237 241 254
186 180 194 159 187 251 261 142 181 230 276 297 272 209 197 215 205 155 166 169 163 157 152 149 146 151 152 151 149 153 173 192 169 147 134 119 96 261 247 244 272 260 247 260
202 195 190 190 214 236 241 225 251 266 277 282 276 257 215 209 201 189 181 172 167 162 157 151 146 139 138 151 153 157 173 156 134 120 113 98 72 47 32 31 338 331 304 269
276 175 184 259 271 270 268 263 270 266 259 273 273 265 218 209 201 189 180 175 170 164 160 151 145 145 150 154 152 154 150 141 130 124 116 97 80 52 37 37 36 34 358 329
267 251 268 273 285 308 306 303 314 314 305 300 298 266 231 215 204 191 185 183 178 168 161 158 159 157 156 150 144 145 144 135 126 121 113 96 81 73 52 45 44 44 33 42
222 227 240 258 274 285 294 307 319 314 309 309 304 293 262 218 213 197 193 186 176 169 160 159 157 153 152 147 143 145 145 139 133 126 119 109 98 82 75 73 54 44 53 51